Location: Kapuskasing
(49.3803°N, 82.4001°W)
Time: 10:54:04
(UTC-04:00)

RS-44 - Pass Details

Date: 23 March 2026
Orbit: 1175 x 1510 km, 82.5° (Epoch: 11 April)

Event Time Altitude Azimuth Distance (km) Brightness Sun altitude
Rises 02:15:56 0° 351° (N) 4,460 ? -38.9°
Reaches altitude 10° 02:18:50 10° 356° (N) 3,524 ? -38.7°
Maximum altitude 02:27:07 52° 72° (ENE) 1,785 ? -38.4°
Enters shadow 02:28:01 50° 90° (E) 1,820 ? -38.3°
